Flag for U.S.A. Weather past 2 weeks in Redlands, California, U.S.A.

Now
55 °F

Fog.


Feels Like: 55 °F
Forecast: 58 / 80 °F
Wind: No wind

Location: Riverside / March Air Force Base

Current Time: Oct 20, 2014 at 6:52:48 AM

Latest Report: Oct 20, 2014 at 5:58 AM


Visibility: 5 mi

Pressure: 29.90 "Hg

Humidity: 98%

Dew point: 55 °F

Location of RedlandsLocation

Historic Weather in Redlands — Graph

°F

Redlands temperature yesterday

Maximum temperature yesterday: 79 °F (at 3:58 PM)
Minimum temperature yesterday: 52 °F (at 5:58 AM)
Average temperature yesterday: 64 °F

Past Weeks' High & Low Weather Summary

 TemperatureHumidityPressure
High99 °F (Oct 5, 2:58 PM)98% (Oct 20, 5:58 AM)30.03 "Hg (Oct 20, 5:58 AM)
Low52 °F (Oct 19, 5:58 AM)6% (Oct 13, 11:58 AM)29.78 "Hg (Oct 8, 3:58 PM)
Average69 °F57%29.92 "Hg
* Reported Oct 5 5:58 AM — Oct 20 5:58 AM, Redlands, Weather by CustomWeather, © 2014

Note: Actual official high and low records may vary slightly from our data, if they occured in-between our weather recording intervals... More about our weather records

Advertising

Redlands weather history for previous 24 hours

 ConditionsComfort  
Time TempWeatherWind HumidityBarometerVisibility
5:58 AM
Oct 20
55 °FFog.No wind98%29.90 "Hg5 mi
4:58 AM56 °FClear.1 mph97%29.88 "Hg7 mi
3:58 AM55 °FClear.2 mph88%29.87 "Hg10 mi
2:58 AM56 °FClear.1 mph88%29.88 "Hg10 mi
1:58 AM57 °FClear.No wind87%29.89 "Hg10 mi
12:58 AM58 °FClear.3 mph88%29.89 "Hg10 mi
11:58 PM
Oct 19
59 °FClear.1 mph79%29.89 "Hg10 mi
10:58 PM60 °FClear.No wind83%29.90 "Hg10 mi
9:58 PM62 °FClear.1 mph80%29.90 "Hg10 mi
7:58 PM67 °FClear.5 mph70%29.87 "Hg10 mi
6:58 PM70 °FSunny.8 mph66%29.86 "Hg10 mi
5:58 PM74 °FSunny.8 mph57%29.84 "Hg10 mi
4:58 PM77 °FSunny.12 mph47%29.83 "Hg10 mi
3:58 PM79 °FSunny.9 mph43%29.83 "Hg10 mi
2:58 PM79 °FSunny.9 mph42%29.84 "Hg10 mi
1:58 PM77 °FSunny.10 mph40%29.85 "Hg10 mi
12:58 PM76 °FSunny.8 mph42%29.87 "Hg10 mi
11:58 AM74 °FSunny.8 mph47%29.89 "Hg10 mi
10:58 AM70 °FSunny.No wind55%29.91 "Hg10 mi
9:58 AM65 °FSunny.3 mph65%29.93 "Hg10 mi
8:58 AM61 °FSunny.1 mph78%29.93 "Hg10 mi
7:58 AM57 °FSunny.No wind83%29.91 "Hg10 mi
6:58 AM52 °FClear.No wind91%29.89 "Hg10 mi
Weather by CustomWeather, © 2014

See weather overviewHow to use our weather pages